Regional Weather Roundup
Issued by NWS Cleveland, OH

Home | Current Version | Previous Version | Text Only | Print | Product List | Glossary Off
Versions: 1 2 3 4 5 6 7 8 9 10 11 12 13 14 15 16 17 18 19 20 21 22 23 24 25 26 27 28 29 30 31 32 33 34 35 36 37 38 39 40 41 42 43 44 45 46 47 48 49 50

000
ASUS41 KCLE 060310
RWRCLE
OHIO REGIONAL WEATHER ROUNDUP
NATIONAL WEATHER SERVICE WILMINGTON, OH
1000 PM EST FRI FEB 05 2016

NOTE: "FAIR" INDICATES FEW OR NO CLOUDS BELOW 12,000 FEET WITH NO
SIGNIFICANT WEATHER AND/OR OBSTRUCTIONS TO VISIBILITY.

OHZ001>008-015>018-024>027-034-035-043-044-060400-
   NORTHWEST OHIO

CITY           SKY/WX    TMP DP  RH WIND       PRES   REMARKS
DEFIANCE       MOCLDY    32  23  69 W6        30.31F WCI  26
FINDLAY        CLOUDY    31  25  78 W8        30.31F WCI  23
TOLEDO EXPRESS FAIR      31  22  69 SW9       30.29F WCI  23
TOLEDO EXEC    FAIR      33  22  63 SW9       30.31F WCI  25
LIMA           CLOUDY    30  23  75 W7        30.31F WCI  23
$$

OHZ009>014-019>023-028>033-038-089-060400-
   NORTHEAST OHIO

CITY           SKY/WX    TMP DP  RH WIND       PRES   REMARKS
CLE-HOPKINS    CLOUDY    35  20  54 S9        30.32F WCI  28
CLE-LAKEFRONT  CLOUDY    36  21  54 S12       30.30F
CUY CO. ARPT   CLOUDY    36  21  55 S9        30.31F
LORAIN-ELYRIA  CLOUDY    33  21  61 S8        30.30F WCI  26
ASHTABULA      FAIR      28  17  63 SE7       30.31F WCI  21
AKRON-CANTON   MOCLDY    31  19  61 SW7       30.31F WCI  24
WOOSTER        CLOUDY    32  21  64 S7        30.31F WCI  26
MANSFIELD      CLOUDY    32  20  61 S10       30.28F WCI  24
YOUNGSTOWN     FAIR      28  17  63 S5        30.31F WCI  23
$$

OHZ042-051>053-060>062-070>072-077>081-060400-
  SOUTHWEST OHIO

CITY           SKY/WX    TMP DP  RH WIND       PRES   REMARKS
CINC-COVINGTON FAIR      32  19  58 S7        30.32F WCI  26
CINC-LUNKEN    CLOUDY    32  23  69 S5        30.35F WCI  27
HAMILTON       FAIR      34  26  72 NW10      30.36R WCI  26
DAYTON         MOCLDY    30  26  85 NW5       30.34S WCI  25
WRIGHT-PAT AFB MOCLDY    33  26  74 NW6       30.33R WCI  27
DAYTON GENERAL FAIR      35  21  56 NW6       30.32S
WILMINGTON     MOCLDY    32  21  64 S9        30.32F WCI  24
$$

OHZ036-037-039>041-045>050-054>059-063>069-073>076-082>088-060400-
  CENTRAL AND SOUTHEAST OHIO

CITY           SKY/WX    TMP DP  RH WIND       PRES   REMARKS
COLUMBUS       CLOUDY    34  17  50 S7        30.33F WCI  28
OSU AIRPORT    CLOUDY    35  19  52 S9        30.31F WCI  28
BOLTON FIELD   CLOUDY    33  22  64 S7        30.33S WCI  27
RICKENBACK AFB CLOUDY    33  21  60 S8        30.33F WCI  26
NEWARK         CLOUDY    33  21  61 S6        30.33F WCI  28
MARION         CLOUDY    34  19  54 W9        30.31S WCI  27
LANCASTER      CLOUDY    34  20  56 S6        30.34F WCI  29
ZANESVILLE     MOCLDY    29  19  66 CALM      30.35F
NEW PHILLY     CLOUDY    29  21  72 SE3       30.35F
$$



USA.gov is the U.S. government's official web portal to all federal, state and local government web resources and services.